{"data":{"norad_id":58748,"intl_designator":"2024-005W","name":"STARLINK-31165","alt_names":[],"object_type":"PAYLOAD","status":"ACTIVE","operator":null,"country":"US","launch_date":"2024-01-07","launch_site_code":"AFETR","launch_vehicle":null,"mission":null,"orbit_class":"UNKNOWN","rcs_meters":null,"size_class":null,"mass_kg":null,"dimensions":null,"purposes":["comms"],"wikipedia_slug":null,"has_3d_model":false,"image_url":null,"decayed_at":null,"tle_current":{"epoch":"2026-05-25T01:41:08.039616Z","epoch_age_seconds":79154,"freshness":"FRESH","line1":"1 58748U 24005W   26145.07023194 -.00007818  00000+0 -27476-3 0  9991","line2":"2 58748  43.0028 148.5279 0002032 273.4176  86.6443 15.27588110132122","mean_motion":15.2758811,"eccentricity":0.0002032,"inclination_deg":43.0028,"raan_deg":148.5279,"arg_perigee_deg":273.4176,"mean_anomaly_deg":86.6443,"bstar":-0.00027476,"rev_number":13212,"period_min":94.26624824934,"perigee_km":481.63062380936,"apogee_km":484.41899996971,"semimajor_km":6861.1618118895,"source":"CELESTRAK","updated_at":"2026-05-25T13:38:18.741178Z"}}}